Regional Weather Roundup
Issued by NWS

Home | Current Version | Previous Version | Text Only | Print | Product List | Glossary Off
Versions: 1 2 3 4 5 6 7 8 9 10 11 12 13 14 15 16 17 18 19 20 21 22 23 24 25 26 27 28 29 30 31 32 33 34 35 36 37 38 39 40 41 42 43 44 45 46 47 48 49 50

998
ASUS43 KBIS 210602
RWRND

NORTH DAKOTA REGIONAL WEATHER ROUNDUP
NATIONAL WEATHER SERVICE BISMARCK ND
1200 AM CST WED FEB 21 2018

NOTE: "FAIR" INDICATES FEW OR NO CLOUDS BELOW 12,000 FEET WITH NO
SIGNIFICANT WEATHER AND/OR OBSTRUCTIONS TO VISIBILITY.


NDZ001>003-009>011-017-210700-
NORTHWEST NORTH DAKOTA

CITY           SKY/WX    TMP DP  RH WIND       PRES   REMARKS
WILLISTON      CLEAR     -6 -13  71 CALM      30.24R
6HR MIN TEMP:  -7; 6HR MAX TEMP:   3;

MINOT          CLEAR      2  -8  63 SW16      30.18R WCI -18
MINOT AFB      PTCLDY     0  -9  67 W15       30.18R WCI -20
$$

NDZ018>021-031>035-040>046-210700-
SOUTHWEST NORTH DAKOTA

CITY           SKY/WX    TMP DP  RH WIND       PRES   REMARKS
BISMARCK       CLEAR     -3 -10  72 SW6       30.30R WCI -15
6HR MIN TEMP:  -3; 6HR MAX TEMP:   9;

DICKINSON      CLEAR     -6 -14  68 W12       30.19R WCI -25
GARRISON         N/A     -5 -11  75 W10       30.21R WCI -23
6HR MIN TEMP:  -6; 6HR MAX TEMP:   3;

HETTINGER ARPT CLEAR    -16 -22  74 W8        30.25R WCI -34
$$

NDZ004>008-012>016-024-026-027-054-210700-
NORTHEAST NORTH DAKOTA

CITY           SKY/WX    TMP DP  RH WIND       PRES   REMARKS
GRAND FORKS    FAIR       3  -4  72 SW12      30.24R WCI -13
DEVILS LAKE    FAIR      -2  -7  79 W16       30.21R WCI -23
$$

NDZ022-023-025-028>030-036>039-047>053-210700-
SOUTHEAST NORTH DAKOTA

CITY           SKY/WX    TMP DP  RH WIND       PRES   REMARKS
FARGO          FAIR       1  -5  75 SW12      30.31R WCI -16
6HR MIN TEMP:   1; 6HR MAX TEMP:   6;

JAMESTOWN      CLEAR      2  -5  72 W13       30.25R WCI -15
$$





USA.gov is the U.S. government's official web portal to all federal, state and local government web resources and services.